Location: *
(1.3500°S, 147.5000°W)
Time: 20:01:08
(UTC+00:00)

Cosmos 2369 Rocket - Pass Details

Date: 07 April 2020
Orbit: 829 x 852 km, 71.0° (Epoch: 27 May)

Event Time Altitude Azimuth Distance (km) Brightness Sun altitude
Rises 05:52:30 0° 353° (N) 3,376 5.5 -30.0°
Reaches altitude 10° 05:54:59 10° 358° (N) 2,441 4.7 -30.6°
Enters shadow 05:56:04 16° 1° (N) 2,048 4.2 -30.9°
